898  
NZUS93 KARX 190310  
HRRWXR  
 
CURRENT HOURLY OBSERVATIONS ACROSS  
MUCH OF THE UPPER MISSISSIPPI VALLEY  
NATIONAL WEATHER SERVICE LA CROSSE WI  
1000 PM CDT WED JUL 18 2018  
 
   
..SOUTHEAST MINNESOTA
 
 
 
CITY SKY/WX TMP DP RH WIND PRES REMARKS  
ROCHESTER FAIR 66 62 87 SE8 30.01S  
ROCHESTER/MAYO FAIR 71 61 69 E6 30.01S  
WINONA FAIR 70 61 73 CALM 30.01R  
AUSTIN FAIR 68 63 83 E5 30.00R  
ALBERT LEA FAIR 72 61 68 SE6 29.99R  
DODGE CENTER FAIR 64 61 88 CALM 30.01R  
PRESTON FAIR 71 59 66 SE3 30.03R  
OWATONNA FAIR 70 63 78 SE5 29.99R  
FARIBAULT FAIR 72 63 73 E5 29.98F  

 
   
..ELSEWHERE IN MINNESOTA
 
 
 
CITY SKY/WX TMP DP RH WIND PRES REMARKS  
MINNEAPOLIS MOCLDY 75 60 59 SE9 29.98R  
INTNL FALLS FAIR 63 57 81 CALM 29.94R  
DULUTH FAIR 69 57 65 SW6 29.99S  
RED WING FAIR 70 57 64 CALM 29.98R  
REDWOOD FALLS CLOUDY 73 67 81 E7 29.91F  
MANKATO FAIR 72 65 78 SE8 29.97R  
WORTHINGTON LGT RAIN 72 65 78 SE6 29.95R  
FAIRMONT LGT RAIN 71 66 84 SE7 29.96S  

 
   
..SOUTHWEST WISCONSIN
 
 
 
CITY SKY/WX TMP DP RH WIND PRES REMARKS  
LA CROSSE FAIR 73 65 75 E7 29.99R  
PRAIRIE DU CHI CLOUDY 74 62 67 SE3 30.01R  
BOSCOBEL FAIR 71 64 78 CALM 30.01R  
LONE ROCK FAIR 68 65 90 E3 30.02R  
PLATTEVILLE FAIR 69 65 89 SE5 30.04S  
FORT MC COY FAIR 65 63 92 CALM 30.02S  
CAMP DOUGLAS MOCLDY 63 63 100 SE3 30.02R  
MAUSTON-NEW LI FAIR 66 63 89 CALM 30.01S  
VIROQUA FAIR 68 65 90 SE3 30.03R  
WIS DELLS FAIR 68 60 75 CALM 30.03S  

 
   
..ELSEWHERE IN WISCONSIN
 
 
 
CITY SKY/WX TMP DP RH WIND PRES REMARKS  
MILWAUKEE MOCLDY 69 56 62 S5 30.06R  
MADISON FAIR 71 59 65 S5 30.03R  
GREEN BAY FAIR 65 56 72 SE8 30.05S  
EAU CLAIRE FAIR 67 58 72 CALM 30.00R  
BLACK RVR FLS FAIR 61 61 100 CALM 30.01R  
MEDFORD FAIR 59 54 84 CALM 30.03R  
WAUSAU FAIR 66 55 67 E5 30.02R  
WIS RAPIDS FAIR 67 55 65 CALM 30.03R  
MARSHFIELD FAIR 67 56 67 CALM 30.02R  
RICE LAKE FAIR 65 59 80 CALM 30.02R  

 
   
..NORTHEAST IOWA
 
 
 
CITY SKY/WX TMP DP RH WIND PRES REMARKS  
WATERLOO FAIR 73 68 84 SE7 29.98R  
DUBUQUE FAIR 69 61 75 SE8 30.04R  
DECORAH FAIR 70 68 94 SE5 30.00S  
MASON CITY CLEAR 70 67 90 SE7 30.00R  
CHARLES CITY FAIR 70 66 88 E6 30.00R  
OELWEIN N/A 72 68 88 SE6 30.01S  

 
   
..ELSEWHERE IN IOWA
 
 
 
CITY SKY/WX TMP DP RH WIND PRES REMARKS  
DES MOINES CLOUDY 78 66 66 E9 29.95S  
IOWA CITY FAIR 74 66 76 SE7 30.02R  
FORT DODGE PTCLDY 73 65 75 E6 29.96S  
MARSHALLTOWN CLOUDY 73 69 87 E7 29.97S  
CEDAR RAPIDS FAIR 69 66 90 E7 30.00R  

 
   
..NORTHERN ILLINOIS
 
 
 
CITY SKY/WX TMP DP RH WIND PRES REMARKS  
CHICAGO-OHARE CLOUDY 72 50 45 E7 30.05S  
CHICAGO-MIDWAY MOCLDY 73 53 49 E8 30.05R  
MOLINE FAIR 69 64 84 SE3 30.02R  
ROCKFORD MOCLDY 69 56 62 SE7 30.06R  
PEORIA FAIR 72 59 63 SE6 30.04R  

 
 
NOTE: "FAIR" INDICATES FEW OR NO CLOUDS BELOW 12,000 FEET WITH NO  
SIGNIFICANT WEATHER AND/OR OBSTRUCTIONS TO VISIBILITY. WIND  
SPEEDS ARE IN MILES-PER-HOUR.  
 
 
CLICK HERE TO GO TO PREVIOUS BULLETINS.

The Nexlab WI Page
The Nexlab IA Page
The Nexlab MN Page Main Text Page